H1 CPF 2 NER 2024 1 29 9 029 01 glonass105 H2 0705202 9105 32276 2024 1 29 0 0 0 2024 2 1 23 45 0 900 1 1 0 0 0 1 H9 10 0 60338 0.00000 0 -17848683.860 -17111892.289 6184439.367 10 0 60338 900.00000 0 -17194542.999 -16387382.550 9250772.468 10 0 60338 1800.00000 0 -16174871.210 -15523974.550 12137033.107 10 0 60338 2700.00000 0 -14791044.986 -14582860.136 14787131.909 10 0 60338 3600.00000 0 -13058011.947 -13625335.079 17149628.750 10 0 60338 4500.00000 0 -11003885.496 -12710105.262 19178728.993 10 0 60338 5400.00000 0 -8668995.117 -11890723.941 20835164.889 10 0 60338 6300.00000 0 -6104432.655 -11213268.017 22086945.839 10 0 60338 7200.00000 0 -3370155.857 -10714350.576 22909964.157 10 0 60338 8100.00000 0 -532728.474 -10419552.127 23288446.066 10 0 60338 9000.00000 0 2337209.112 -10342335.046 23215240.732 10 0 60338 9900.00000 0 5167634.166 -10483485.192 22691943.257 10 0 60338 10800.00000 0 7887889.908 -10831102.582 21728850.524 10 0 60338 11700.00000 0 10431375.249 -11361140.211 20344751.747 10 0 60338 12600.00000 0 12738066.070 -12038467.437 18566558.361 10 0 60338 13500.00000 0 14756765.342 -12818412.803 16428780.616 10 0 60338 14400.00000 0 16446990.640 -13648721.458 13972860.831 10 0 60338 15300.00000 0 17780422.467 -14471845.311 11246375.705 10 0 60338 16200.00000 0 18741854.816 -15227470.313 8302122.429 10 0 60338 17100.00000 0 19329609.760 -15855175.417 5197105.407 10 0 60338 18000.00000 0 19555399.820 -16297112.184 1991442.328 10 0 60338 18900.00000 0 19443644.563 -16500592.950 -1252790.096 10 0 60338 19800.00000 0 19030270.380 -16420479.056 -4472749.175 10 0 60338 20700.00000 0 18361043.790 -16021268.652 -7606035.582 10 0 60338 21600.00000 0 17489507.971 -15278795.854 -10591896.117 10 0 60338 22500.00000 0 16474608.813 -14181468.915 -13372396.990 10 0 60338 23400.00000 0 15378109.742 -12730994.099 -15893545.145 10 0 60338 24300.00000 0 14261903.563 -10942553.122 -18106336.063 10 0 60338 25200.00000 0 13185333.919 -8844424.665 -19967707.801 10 0 60338 26100.00000 0 12202638.823 -6477063.574 -21441382.668 10 0 60338 27000.00000 0 11360623.745 -3891673.870 -22498580.024 10 0 60338 27900.00000 0 10696662.349 -1148332.863 -23118585.993 10 0 60338 28800.00000 0 10237109.488 1686257.442 -23289168.462 10 0 60338 29700.00000 0 9996193.971 4541299.729 -23006828.560 10 0 60338 30600.00000 0 9975438.624 7344607.581 -22276882.814 10 0 60338 31500.00000 0 10163633.094 10025376.626 -21113373.294 10 0 60338 32400.00000 0 10537361.595 12516905.666 -19538806.406 10 0 60338 33300.00000 0 11062064.197 14759154.344 -17583724.294 10 0 60338 34200.00000 0 11693587.519 16701030.297 -15286116.272 10 0 60338 35100.00000 0 12380159.562 18302309.741 -12690681.075 10 0 60338 36000.00000 0 13064705.030 19535110.632 -9847953.979 10 0 60338 36900.00000 0 13687402.508 20384856.310 -6813315.933 10 0 60338 37800.00000 0 14188374.175 20850689.133 -3645904.587 10 0 60338 38700.00000 0 14510392.763 20945317.151 -407449.412 10 0 60338 39600.00000 0 14601489.513 20694301.131 2838945.018 10 0 60338 40500.00000 0 14417351.092 20134813.342 6030042.363 10 0 60338 41400.00000 0 13923402.582 19313922.161 9103718.690 10 0 60338 42300.00000 0 13096487.290 18286476.828 12000181.764 10 0 60338 43200.00000 0 11926071.654 17112683.569 14663140.585 10 0 60338 44100.00000 0 10414924.055 15855477.095 17040901.695 10 0 60338 45000.00000 0 8579238.983 14577799.726 19087370.674 10 0 60338 45900.00000 0 6448201.630 13339903.628 20762939.654 10 0 60338 46800.00000 0 4063011.577 12196789.903 22035244.451 10 0 60338 47700.00000 0 1475406.891 11195891.838 22879777.732 10 0 60338 48600.00000 0 -1254249.515 10375098.596 23280347.842 10 0 60338 49500.00000 0 -4059241.522 9761200.789 23229375.915 10 0 60338 50400.00000 0 -6869035.346 9368821.389 22728027.054 10 0 60338 51300.00000 0 -9611974.380 9199874.877 21786174.332 10 0 60338 52200.00000 0 -12218022.706 9243575.541 20422197.328 10 0 60338 53100.00000 0 -14621444.851 9476993.057 18662619.717 10 0 60338 54000.00000 0 -16763312.311 9866130.931 16541593.155 10 0 60338 54900.00000 0 -18593734.589 10367481.898 14100237.278 10 0 60338 55800.00000 0 -20073723.754 10929994.775 11385848.123 10 0 60338 56700.00000 0 -21176616.580 11497370.281 8450989.573 10 0 60338 57600.00000 0 -21888996.373 12010589.813 5352484.546 10 0 60338 58500.00000 0 -22211077.056 12410571.329 2150324.568 10 0 60338 59400.00000 0 -22156534.134 12640841.184 -1093482.028 10 0 60338 60300.00000 0 -21751789.950 12650109.820 -4316101.779 10 0 60338 61200.00000 0 -21034783.146 12394642.998 -7455085.205 10 0 60338 62100.00000 0 -20053273.663 11840328.516 -10449570.444 10 0 60338 63000.00000 0 -18862753.889 10964350.744 -13241458.548 10 0 60338 63900.00000 0 -17524053.065 9756401.455 -15776537.862 10 0 60338 64800.00000 0 -16100734.873 8219374.481 -18005535.914 10 0 60338 65700.00000 0 -14656396.879 6369513.098 -19885078.485 10 0 60338 66600.00000 0 -13251984.755 4236001.708 -21378537.174 10 0 60338 67500.00000 0 -11943233.723 1860016.492 -22456748.831 10 0 60338 68400.00000 0 -10778344.537 -706727.782 -23098592.566 10 0 60338 69300.00000 0 -9795991.748 -3403876.418 -23291412.526 10 0 60338 70200.00000 0 -9023748.271 -6164701.827 -23031277.549 10 0 60338 71100.00000 0 -8476992.969 -8918646.122 -22323071.696 10 0 60338 72000.00000 0 -8158347.930 -11594034.513 -21180412.845 10 0 60338 72900.00000 0 -8057669.779 -14120847.102 -19625399.852 10 0 60338 73800.00000 0 -8152596.047 -16433433.720 -17688192.042 10 0 60338 74700.00000 0 -8409624.013 -18473058.217 -15406428.329 10 0 60338 75600.00000 0 -8785676.605 -20190165.395 -12824496.556 10 0 60338 76500.00000 0 -9230088.940 -21546275.034 -9992666.943 10 0 60338 77400.00000 0 -9686930.833 -22515423.023 -6966106.637 10 0 60338 78300.00000 0 -10097565.831 -23085088.663 -3803795.126 10 0 60338 79200.00000 0 -10403336.983 -23256569.172 -567362.561 10 0 60338 80100.00000 0 -10548263.858 -23044786.001 2680124.983 10 0 60338 81000.00000 0 -10481634.833 -22477532.044 5875408.153 10 0 60338 81900.00000 0 -10160383.198 -21594192.825 8956279.093 10 0 60338 82800.00000 0 -9551145.097 -20443997.270 11862802.586 10 0 60338 83700.00000 0 -8631911.264 -19083873.630 14538488.659 10 0 60338 84600.00000 0 -7393202.167 -17576002.720 16931393.060 10 0 60338 85500.00000 0 -5838716.771 -15985173.037 18995123.932 10 0 60339 0.00000 0 -3985427.923 -14376050.273 20689735.249 10 0 60339 900.00000 0 -1863119.580 -12810475.600 21982491.303 10 0 60339 1800.00000 0 486611.796 -11344908.176 22848486.342 10 0 60339 2700.00000 0 3011852.940 -10028115.429 23271111.828 10 0 60339 3600.00000 0 5652301.687 -8899208.670 23242361.472 10 0 60339 4500.00000 0 8341547.936 -7986103.650 22762970.600 10 0 60339 5400.00000 0 11009613.222 -7304468.539 21842388.338 10 0 60339 6300.00000 0 13585644.325 -6857201.280 20498584.151 10 0 60339 7200.00000 0 16000650.291 -6634456.242 18757693.147 10 0 60339 8100.00000 0 18190170.697 -6614217.386 16653507.250 10 0 60339 9000.00000 0 20096765.940 -6763392.704 14226821.940 10 0 60339 9900.00000 0 21672227.613 -7039383.241 11524650.752 10 0 60339 10800.00000 0 22879418.516 -7392060.509 8599322.062 10 0 60339 11700.00000 0 23693666.909 -7766069.228 5507474.734 10 0 60339 12600.00000 0 24103657.820 -8103358.865 2308971.240 10 0 60339 13500.00000 0 24111784.840 -8345837.828 -934251.614 10 0 60339 14400.00000 0 23733947.952 -8438038.949 -4159372.898 10 0 60339 15300.00000 0 22998805.817 -8329684.215 -7303896.311 10 0 60339 16200.00000 0 21946513.475 -7978040.614 -10306854.588 10 0 60339 17100.00000 0 20626997.786 -7349967.486 -13109986.683 10 0 60339 18000.00000 0 19097842.179 -6423568.286 -15658865.154 10 0 60339 18900.00000 0 17421868.590 -5189375.995 -17903952.096 10 0 60339 19800.00000 0 15664517.163 -3651020.594 -19801563.212 10 0 60339 20700.00000 0 13891132.862 -1825348.494 -21314721.263 10 0 60339 21600.00000 0 12164272.142 258013.476 -22413882.140 10 0 60339 22500.00000 0 10541142.157 2557633.779 -23077519.129 10 0 60339 23400.00000 0 9071279.709 5021753.271 -23292553.481 10 0 60339 24300.00000 0 7794567.255 7590204.283 -23054622.202 10 0 60339 25200.00000 0 6739669.411 10196693.608 -22368176.950 10 0 60339 26100.00000 0 5922956.001 12771355.608 -21246411.084 10 0 60339 27000.00000 0 5347957.283 15243469.967 -19711015.166 10 0 60339 27900.00000 0 5005374.705 17544231.070 -17791764.567 10 0 60339 28800.00000 0 4873646.996 19609453.287 -15525946.259 10 0 60339 29700.00000 0 4920047.759 21382098.538 -12957635.247 10 0 60339 30600.00000 0 5102267.905 22814519.607 -10136834.368 10 0 60339 31500.00000 0 5370415.348 23870324.263 -7118494.286 10 0 60339 32400.00000 0 5669346.244 24525781.235 -3961433.322 10 0 60339 33300.00000 0 5941227.600 24770708.443 -727179.072 10 0 60339 34200.00000 0 6128220.958 24608806.053 2521244.268 10 0 60339 35100.00000 0 6175171.585 24057420.754 5720557.752 10 0 60339 36000.00000 0 6032187.451 23146752.090 8808472.946 10 0 60339 36900.00000 0 5656997.135 21918535.617 11724914.840 10 0 60339 37800.00000 0 5016985.643 20424259.960 14413197.436 10 0 60339 38700.00000 0 4090821.198 18722994.505 16821128.351 10 0 60339 39600.00000 0 2869603.902 16878920.706 18902020.634 10 0 60339 40500.00000 0 1357487.809 14958671.954 20615592.380 10 0 60339 41400.00000 0 -428249.553 13028594.411 21928737.413 10 0 60339 42300.00000 0 -2457692.778 11152043.751 22816153.193 10 0 60339 43200.00000 0 -4689308.605 9386830.484 23260815.215 10 0 60339 44100.00000 0 -7071457.547 7782919.521 23254290.247 10 0 60339 45000.00000 0 -9544334.088 6380478.465 22796883.873 10 0 60339 45900.00000 0 -12042254.990 5208354.090 21897620.815 10 0 60339 46800.00000 0 -14496201.217 4283038.380 20574059.467 10 0 60339 47700.00000 0 -16836508.752 3608165.097 18851944.910 10 0 60339 48600.00000 0 -18995597.741 3174555.851 16764707.394 10 0 60339 49500.00000 0 -20910627.921 2960812.041 14352815.867 10 0 60339 50400.00000 0 -22525971.293 2934426.546 11662998.652 10 0 60339 51300.00000 0 -23795400.487 3053367.779 8747345.639 10 0 60339 52200.00000 0 -24683902.820 3268069.143 5662308.513 10 0 60339 53100.00000 0 -25169045.241 3523740.293 2467617.500 10 0 60339 54000.00000 0 -25241833.752 3762903.130 -774865.299 10 0 60339 54900.00000 0 -24907031.580 3928046.090 -4002334.604 10 0 60339 55800.00000 0 -24182922.643 3964285.148 -7152250.309 10 0 60339 56700.00000 0 -23100529.769 3821919.495 -10163542.629 10 0 60339 57600.00000 0 -21702319.688 3458774.016 -12977791.157 10 0 60339 58500.00000 0 -20040448.166 2842229.274 -15540355.189 10 0 60339 59400.00000 0 -18174617.783 1950852.585 -17801433.637 10 0 60339 60300.00000 0 -16169637.056 775560.081 -19717034.055 10 0 60339 61200.00000 0 -14092782.134 -679740.869 -21249831.883 10 0 60339 62100.00000 0 -12011070.649 -2398058.047 -22369903.121 10 0 60339 63000.00000 0 -9988561.104 -4349775.921 -23055315.837 10 0 60339 63900.00000 0 -8083790.364 -6493655.483 -23292568.514 10 0 60339 64800.00000 0 -6347456.216 -8778332.966 -23076866.005 10 0 60339 65700.00000 0 -4820441.970 -11144256.995 -22412226.837 10 0 60339 66600.00000 0 -3532266.014 -13525984.979 -21311418.743 10 0 60339 67500.00000 0 -2500021.538 -15854744.106 -19795722.558 10 0 60339 68400.00000 0 -1727851.187 -18061150.618 -17894527.971 10 0 60339 69300.00000 0 -1206978.881 -20077973.803 -15644768.055 10 0 60339 70200.00000 0 -916297.413 -21842828.665 -13090202.831 10 0 60339 71100.00000 0 -823486.680 -23300683.695 -10280565.465 10 0 60339 72000.00000 0 -886614.673 -24406077.562 -7270587.764 10 0 60339 72900.00000 0 -1056152.418 -25124950.626 -4118924.462 10 0 60339 73800.00000 0 -1277316.143 -25436013.395 -886998.161 10 0 60339 74700.00000 0 -1492635.750 -25331593.806 2362211.269 10 0 60339 75600.00000 0 -1644638.826 -24817927.574 5565407.729 10 0 60339 76500.00000 0 -1678534.565 -23914879.773 8660224.631 10 0 60339 77400.00000 0 -1544782.116 -22655110.273 11586449.568 10 0 60339 78300.00000 0 -1201433.142 -21082719.424 14287202.844 10 0 60339 79200.00000 0 -616148.457 -19251432.444 16710046.166 10 0 60339 80100.00000 0 232197.101 -17222400.320 18807999.539 10 0 60339 81000.00000 0 1352389.437 -15061710.840 20540446.862 10 0 60339 81900.00000 0 2740276.851 -12837715.001 21873913.331 10 0 60339 82800.00000 0 4378723.345 -10618281.105 22782700.658 10 0 60339 83700.00000 0 6238115.102 -8468091.100 23249369.230 10 0 60339 84600.00000 0 8277398.571 -6446091.166 23265059.398 10 0 60339 85500.00000 0 10445606.587 -4603201.465 22829647.190 10 0 60340 0.00000 0 12683808.734 -2980378.722 21951732.894 10 0 60340 900.00000 0 14927406.333 -1607109.369 20648463.255 10 0 60340 1800.00000 0 17108674.183 -500395.784 18945192.684 10 0 60340 2700.00000 0 19159448.274 335727.204 16874988.781 10 0 60340 3600.00000 0 21013845.814 910125.257 14477992.708 10 0 60340 4500.00000 0 22610906.753 1243952.306 11800646.011 10 0 60340 5400.00000 0 23897047.781 1369519.932 8894798.209 10 0 60340 6300.00000 0 24828227.580 1328696.557 5816711.602 10 0 60340 7200.00000 0 25371733.754 1170904.058 2625981.645 10 0 60340 8100.00000 0 25507517.325 950796.075 -615607.060 10 0 60340 9000.00000 0 25229019.163 725715.558 -3845267.870 10 0 60340 9900.00000 0 24543453.554 553038.388 -7000419.955 10 0 60340 10800.00000 0 23471536.497 487514.809 -10019894.084 10 0 60340 11700.00000 0 22046669.272 578720.715 -12845113.429 10 0 60340 12600.00000 0 20313610.380 868726.495 -15421226.772 10 0 60340 13500.00000 0 18326690.274 1390082.272 -17698172.347 10 0 60340 14400.00000 0 16147642.265 2164205.442 -19631651.779 10 0 60340 15300.00000 0 13843139.142 3200239.823 -21183995.160 10 0 60340 16200.00000 0 11482137.335 4494436.209 -22324900.299 10 0 60340 17100.00000 0 9133138.626 6030082.506 -23032031.484 10 0 60340 18000.00000 0 6861483.107 7777988.716 -23291465.585 10 0 60340 18900.00000 0 4726785.949 9697508.805 -23097976.136 10 0 60340 19800.00000 0 2780624.810 11738058.930 -22455149.014 10 0 60340 20700.00000 0 1064574.543 13841070.389 -21375326.405 10 0 60340 21600.00000 0 -391328.485 15942297.089 -19879379.079 10 0 60340 22500.00000 0 -1569628.020 17974381.919 -17996310.263 10 0 60340 23400.00000 0 -2465951.646 19869574.935 -15762697.896 10 0 60340 24300.00000 0 -3088955.559 21562489.248 -13221985.350 10 0 60340 25200.00000 0 -3459712.997 22992778.378 -10423634.034 10 0 60340 26100.00000 0 -3610572.789 24107621.603 -7422154.428 10 0 60340 27000.00000 0 -3583537.238 24863911.660 -4276034.885 10 0 60340 27900.00000 0 -3428229.344 25230051.616 -1046589.940 10 0 60340 28800.00000 0 -3199537.102 25187284.293 2203248.115 10 0 60340 29700.00000 0 -2955036.618 24730497.688 5410169.378 10 0 60340 30600.00000 0 -2752305.158 23868472.372 8511732.473 10 0 60340 31500.00000 0 -2646239.911 22623560.816 11447590.868 10 0 60340 32400.00000 0 -2686497.617 21030813.011 14160674.302 10 0 60340 33300.00000 0 -2915164.664 19136586.277 16598301.476 10 0 60340 34200.00000 0 -3364756.937 16996699.007 18713202.007 10 0 60340 35100.00000 0 -4056634.159 14674207.012 20464427.961 10 0 60340 36000.00000 0 -4999895.491 12236896.613 21818137.947 10 0 60340 36900.00000 0 -6190802.406 9754599.886 22748239.623 10 0 60340 37800.00000 0 -7612752.551 7296444.203 23236879.578 10 0 60340 38700.00000 0 -9236805.074 4928150.131 23274772.620 10 0 60340 39600.00000 0 -11022734.984 2709489.131 22861365.630 10 0 60340 40500.00000 0 -12920572.240 692005.130 22004834.173 10 0 60340 41400.00000 0 -14872561.442 -1082907.310 20721913.031 10 0 60340 42300.00000 0 -16815460.757 -2585490.558 19037564.658 10 0 60340 43200.00000 0 -18683084.993 -3798617.670 16984492.305 10 0 60340 44100.00000 0 -20408987.748 -4718253.172 14602507.160 10 0 60340 45000.00000 0 -21929171.883 -5353363.638 11937761.382 10 0 60340 45900.00000 0 -23184716.364 -5725283.389 9041861.173 10 0 60340 46800.00000 0 -24124210.816 -5866563.076 5970876.247 10 0 60340 47700.00000 0 -24705896.876 -5819350.109 2784263.939 10 0 60340 48600.00000 0 -24899427.309 -5633369.289 -456272.069 10 0 60340 49500.00000 0 -24687169.444 -5363588.556 -3687967.186 10 0 60340 50400.00000 0 -24064998.100 -5067667.935 -6848203.225 10 0 60340 51300.00000 0 -23042544.227 -4803298.874 -9875714.768 10 0 60340 52200.00000 0 -21642887.858 -4625545.944 -12711771.681 10 0 60340 53100.00000 0 -19901707.052 -4584302.954 -15301315.136 10 0 60340 54000.00000 0 -17865917.007 -4721970.969 -17594025.304 10 0 60340 54900.00000 0 -15591854.785 -5071456.731 -19545300.142 10 0 60340 55800.00000 0 -13143083.998 -5654576.766 -21117126.188 10 0 60340 56700.00000 0 -10587909.756 -6480935.775 -22278824.333 10 0 60340 57600.00000 0 -7996706.309 -7547328.227 -23007655.795 10 0 60340 58500.00000 0 -5439167.899 -8837690.324 -23289275.959 10 0 60340 59400.00000 0 -2981596.712 -10323606.523 -23118026.635 10 0 60340 60300.00000 0 -684340.566 -11965351.545 -22497060.152 10 0 60340 61200.00000 0 1400512.919 -13713426.116 -21438291.833 10 0 60340 62100.00000 0 3231089.409 -15510523.721 -19962180.712 10 0 60340 63000.00000 0 4777246.460 -17293847.053 -18097341.594 10 0 60340 63900.00000 0 6021593.903 -18997677.600 -15879995.086 10 0 60340 64800.00000 0 6959973.246 -20556090.519 -13353265.515 10 0 60340 65700.00000 0 7601376.163 -21905700.263 -10566339.991 10 0 60340 66600.00000 0 7967306.012 -22988320.524 -7573505.014 10 0 60340 67500.00000 0 8090610.232 -23753425.329 -4433079.822 10 0 60340 68400.00000 0 8013834.199 -24160306.284 -1206268.127 10 0 60340 69300.00000 0 7787167.784 -24179833.798 2044048.105 10 0 60340 70200.00000 0 7466073.437 -23795747.084 5254547.861 10 0 60340 71100.00000 0 7108698.244 -23005417.967 8362717.566 10 0 60340 72000.00000 0 6773181.549 -21820056.224 11308079.028 10 0 60340 72900.00000 0 6514973.950 -20264348.187 14033373.691 10 0 60340 73800.00000 0 6384282.511 -18375544.559 16485679.315 10 0 60340 74700.00000 0 6423751.208 -16202036.805 18617436.920 10 0 60340 75600.00000 0 6666474.979 -13801482.903 20387368.229 10 0 60340 76500.00000 0 7134431.140 -11238561.894 21761266.419 10 0 60340 77400.00000 0 7837393.728 -8582451.764 22712645.896 10 0 60340 78300.00000 0 8772375.761 -5904136.108 23223239.900 10 0 60340 79200.00000 0 9923621.949 -3273651.438 23283337.807 10 0 60340 80100.00000 0 11263151.432 -757388.820 22891957.150 10 0 60340 81000.00000 0 12751827.205 1584439.436 22056848.389 10 0 60340 81900.00000 0 14340907.235 3700064.634 20794333.459 10 0 60340 82800.00000 0 15974012.479 5548066.135 19128981.971 10 0 60340 83700.00000 0 17589429.995 7098838.567 17093131.676 10 0 60340 84600.00000 0 19122655.651 8335563.052 14726262.440 10 0 60340 85500.00000 0 20509071.095 9254644.093 12074235.467 10 0 60341 0.00000 0 21686644.007 9865595.703 9188412.122 10 0 60341 900.00000 0 22598540.284 10190383.219 6124666.982 10 0 60341 1800.00000 0 23195538.139 10262248.614 2942317.255 10 0 60341 2700.00000 0 23438145.653 10124070.215 -297016.758 10 0 60341 3600.00000 0 23298331.694 9826325.040 -3530595.141 10 0 60341 4500.00000 0 22760798.110 9424739.753 -6695765.041 10 0 60341 5400.00000 0 21823739.171 8977728.773 -9731167.537 10 0 60341 6300.00000 0 20499055.453 8543727.182 -12577921.788 10 0 60341 7200.00000 0 18812011.874 8178530.591 -15180763.788 10 0 60341 8100.00000 0 16800352.631 7932754.040 -17489117.887 10 0 60341 9000.00000 0 14512908.314 7849517.257 -19458080.392 10 0 60341 9900.00000 0 12007751.643 7962454.363 -21049296.099 10 0 60341 10800.00000 0 9349977.089 8294132.773 -22231710.608 10 0 60341 11700.00000 0 6609195.433 8854949.117 -22982183.484 10 0 60341 12600.00000 0 3856846.387 9642550.244 -23285949.843 10 0 60341 13500.00000 0 1163440.220 10641805.448 -23136920.730 10 0 60341 14400.00000 0 -1404157.433 11825333.020 -22537815.568 10 0 60341 15300.00000 0 -3785284.777 13154560.841 -21500123.100 10 0 60341 16200.00000 0 -5927780.516 14581278.110 -20043890.478 10 0 60341 17100.00000 0 -7789922.038 16049614.299 -18197343.503 10 0 60341 18000.00000 0 -9341923.943 17498362.927 -15996344.420 10 0 60341 18900.00000 0 -10566934.040 18863552.678 -13483697.061 10 0 60341 19800.00000 0 -11461485.139 20081157.353 -10708312.404 10 0 60341 20700.00000 0 -12035383.908 21089829.679 -7724250.793 10 0 60341 21600.00000 0 -12311042.208 21833542.555 -4589659.894 10 0 60341 22500.00000 0 -12322280.162 22264024.931 -1365629.910 10 0 60341 23400.00000 0 -12112652.991 22342888.063 1885010.384 10 0 60341 24300.00000 0 -11733374.148 22043351.141 5098931.859 10 0 60341 25200.00000 0 -11240924.630 21351492.495 8213551.806 10 0 60341 26100.00000 0 -10694451.668 20266973.061 11168263.450 10 0 60341 27000.00000 0 -10153068.798 18803201.540 13905622.983 10 0 60341 27900.00000 0 -9673173.128 16986934.635 16372470.159 10 0 60341 28800.00000 0 -9305894.333 14857329.865 18520960.185 10 0 60341 29700.00000 0 -9094783.724 12464491.534 20309487.012 10 0 60341 30600.00000 0 -9073840.930 9867571.581 21703480.698 10 0 60341 31500.00000 0 -9265960.877 7132505.398 22676064.402 10 0 60341 32400.00000 0 -9681865.565 4329477.369 23208559.661 10 0 60341 33300.00000 0 -10319564.493 1530221.567 23290831.662 10 0 60341 34200.00000 0 -11164365.237 -1194730.752 22921469.381 10 0 60341 35100.00000 0 -12189432.763 -3778743.676 22107798.471 10 0 60341 36000.00000 0 -13356873.300 -6161599.001 20865727.814 10 0 60341 36900.00000 0 -14619297.001 -8291745.675 19219433.433 10 0 60341 37800.00000 0 -15921793.979 -10128185.100 17200886.321 10 0 60341 38700.00000 0 -17204241.387 -11641916.190 14849233.267 10 0 60341 39600.00000 0 -18403845.611 -12816882.193 12210042.322 10 0 60341 40500.00000 0 -19457813.980 -13650381.740 9334426.896 10 0 60341 41400.00000 0 -20306044.953 -14152928.573 6278064.584 10 0 60341 42300.00000 0 -20893724.851 -14347566.930 3100128.845 10 0 60341 43200.00000 0 -21173722.838 -14268672.078 -137846.690 10 0 60341 44100.00000 0 -21108683.986 -13960286.605 -3373150.172 10 0 60341 45000.00000 0 -20672732.485 -13474062.404 -6543097.527 10 0 60341 45900.00000 0 -19852713.045 -12866894.653 -9586239.781 10 0 60341 46800.00000 0 -18648917.425 -12198347.020 -12443548.769 10 0 60341 47700.00000 0 -17075264.335 -11527976.121 -15059558.565 10 0 60341 48600.00000 0 -15158923.484 -10912667.655 -17383440.734 10 0 60341 49500.00000 0 -12939397.613 -10404096.315 -19369992.644 10 0 60341 50400.00000 0 -10467098.910 -10046416.619 -20980519.638 10 0 60341 51300.00000 0 -7801477.219 -9874282.366 -22183593.786 10 0 60341 52200.00000 0 -5008776.218 -9911278.882 -22955674.181 10 0 60341 53100.00000 0 -2159509.444 -10168835.148 -23281576.251 10 0 60341 54000.00000 0 674240.105 -10645662.957 -23154780.260 10 0 60341 54900.00000 0 3421585.365 -11327748.225 -22577572.183 10 0 60341 55800.00000 0 6015551.063 -12188896.420 -21561013.157 10 0 60341 56700.00000 0 8395627.164 -13191810.645 -20124737.037 10 0 60341 57600.00000 0 10510053.456 -14289658.266 -18296578.846 10 0 60341 58500.00000 0 12317739.662 -15428060.972 -16112040.390 10 0 60341 59400.00000 0 13789740.551 -16547424.817 -13613602.635 10 0 60341 60300.00000 0 14910224.107 -17585511.874 -10849897.785 10 0 60341 61200.00000 0 15676892.154 -18480144.338 -7874757.147 10 0 60341 62100.00000 0 16100836.167 -19171925.823 -4746153.734 10 0 60341 63000.00000 0 16205835.110 -19606863.507 -1525061.016 10 0 60341 63900.00000 0 16027126.161 -19738778.766 1725748.706 10 0 60341 64800.00000 0 15609701.812 -19531402.965 4942941.434 10 0 60341 65700.00000 0 15006207.208 -18960068.555 8063868.448 10 0 60341 66600.00000 0 14274528.656 -18012923.164 11027797.288 10 0 60341 67500.00000 0 13475177.230 -16691614.976 13777101.500 10 0 60341 68400.00000 0 12668579.806 -15011420.438 16258385.085 10 0 60341 69300.00000 0 11912393.328 -13000809.272 18423519.306 10 0 60341 70200.00000 0 11258956.427 -10700465.606 20230571.800 10 0 60341 71100.00000 0 10752986.100 -8161806.910 21644610.546 10 0 60341 72000.00000 0 10429616.063 -5445063.289 22638368.085 10 0 60341 72900.00000 0 10312858.453 -2616997.685 23192754.478 10 0 60341 73800.00000 0 10414552.300 251638.104 23297210.580 10 0 60341 74700.00000 0 10733841.504 3088806.109 22949896.322 10 0 60341 75600.00000 0 11257202.817 5823932.282 22157711.772 10 0 60341 76500.00000 0 11959021.436 8390591.185 20936151.699 10 0 60341 77400.00000 0 12802689.183 10729015.554 19308997.276 10 0 60341 78300.00000 0 13742178.715 12788328.614 17307851.269 10 0 60341 79200.00000 0 14724027.734 14528408.516 14971525.738 10 0 60341 80100.00000 0 15689650.262 15921309.444 12345293.764 10 0 60341 81000.00000 0 16577878.647 16952182.177 9480019.078 10 0 60341 81900.00000 0 17327630.389 17619657.318 6431179.602 10 0 60341 82800.00000 0 17880588.585 17935676.467 3257802.967 10 0 60341 83700.00000 0 18183784.093 17924779.255 21333.674 10 0 60341 84600.00000 0 18191971.325 17622876.575 -3215547.038 10 0 60341 85500.00000 0 17869697.920 17075561.570 -6390126.435 99